Location: Bli��� Lhota
(48.7570°N, 14.0120°E)
Time: 06:26:05
(UTC+00:00)

Cosmos 1025 Rocket - Pass Details

Date: 18 September 2020
Orbit: 595 x 617 km, 82.5° (Epoch: 22 October)

Event Time Altitude Azimuth Distance (km) Brightness Sun altitude
Rises 18:45:33 0° 349° (N) 2,885 7.0 -16.2°
Reaches altitude 10° 18:47:47 10° 348° (NNW) 1,979 6.1 -16.6°
Maximum altitude 18:52:10 80° 262° (W) 630 3.1 -17.2°
Enters shadow 18:56:08 12° 176° (S) 1,813 5.2 -17.8°
